M0SDM Weather Reports


time (UTC)temp
C
wind
direction
speed
KPH
gust
KPH
rain 1hr
cm
rain 24hr
cm
rain mn
cm
humidity
%
barometer
mb
20260507141021 14 174 1.6 6.4 0.00 0.00 0.00 57 1013.3
20260507135521 14 154 1.6 6.4 0.00 0.00 0.00 57 1013.2
20260507134021 15 180 1.6 6.4 0.00 0.00 0.00 52 1013.1
20260507132521 16 199 0.0 6.4 0.00 0.00 0.00 52 1013.1
20260507131021 15 127 3.2 6.4 0.00 0.00 0.00 55 1013.2
20260507125521 14 118 0.0 11.3 0.00 0.00 0.00 56 1013.2
20260507124021 16 166 1.6 9.7 0.00 0.00 0.00 51 1013.4
20260507122521 16 197 3.2 6.4 0.00 0.00 0.00 53 1013.3
20260507121021 16 167 0.0 6.4 0.00 0.00 0.00 54 1013.6
20260507115521 15 196 1.6 11.3 0.00 0.00 0.00 57 1014.0
20260507114021 14 168 1.6 6.4 0.00 0.00 0.00 59 1014.2
20260507112521 14 217 3.2 6.4 0.00 0.00 0.00 62 1014.3
20260507111021 14 171 3.2 6.4 0.00 0.00 0.00 61 1014.7
20260507105521 13 153 3.2 6.4 0.00 0.00 0.00 65 1014.8
20260507104021 13 104 3.2 6.4 0.00 0.00 0.00 65 1015.2
20260507102521 12 176 1.6 6.4 0.00 0.00 0.00 66 1015.4
20260507101021 11 126 1.6 6.4 0.00 0.00 0.00 73 1015.6
20260507095521 11 178 3.2 6.4 0.00 0.00 0.00 74 1015.6
20260507094021 11 179 0.0 6.4 0.00 0.00 0.00 75 1015.8
20260507092521 11 134 3.2 6.4 0.00 0.00 0.00 74 1015.7
20260507091021 10 169 1.6 6.4 0.00 0.00 0.00 77 1016.0
20260507090550 11 190 1.6 6.4 0.00 0.00 0.00 75 1015.9
20260507085521 11 190 1.6 6.4 0.00 0.00 0.00 75 1015.9
20260507084021 10 176 0.0 6.4 0.00 0.00 0.00 77 1016.2
20260507082521 10 165 3.2 6.4 0.00 0.00 0.00 78 1016.3
20260507081021 10 180 3.2 6.4 0.00 0.00 0.00 77 1016.7
20260507075521 10 153 1.6 6.4 0.00 0.00 0.00 78 1016.5
20260507074021 9 194 3.2 6.4 0.00 0.00 0.00 82 1016.8
20260507072521 9 182 0.0 6.4 0.00 0.00 0.00 83 1016.8
20260507071021 8 169 0.0 3.2 0.00 0.00 0.00 85 1016.5
20260507065521 8 150 0.0 3.2 0.00 0.00 0.00 87 1016.6
20260507064021 7 148 0.0 3.2 0.00 0.00 0.00 96 1016.6
20260507062521 5 112 0.0 3.2 0.00 0.00 0.00 96 1016.6
20260507061021 4 0 0.0 0.0 0.00 0.00 0.00 96 1016.5
20260507055521 4 0 0.0 0.0 0.00 0.00 0.00 96 1016.5
20260507054021 3 0 0.0 0.0 0.00 0.00 0.00 96 1016.3
20260507052521 3 0 0.0 0.0 0.00 0.00 0.00 95 1016.4
20260507051021 3 0 0.0 0.0 0.00 0.00 0.00 95 1016.4
20260507045521 3 0 0.0 0.0 0.00 0.00 0.00 95 1016.2
20260507044021 3 0 0.0 0.0 0.00 0.00 0.00 96 1016.1
20260507042521 3 0 0.0 0.0 0.00 0.00 0.00 96 1016.0
20260507041021 3 0 0.0 0.0 0.00 0.00 0.00 96 1016.1
20260507035521 3 0 0.0 0.0 0.00 0.00 0.00 95 1016.1
20260507034021 3 0 0.0 0.0 0.00 0.00 0.00 95 1016.2
20260507032521 3 0 0.0 0.0 0.00 0.00 0.00 95 1016.0
20260507031021 4 0 0.0 0.0 0.00 0.00 0.00 95 1016.0
20260507025521 4 0 0.0 0.0 0.00 0.00 0.00 95 1015.9
20260507024021 5 0 0.0 0.0 0.00 0.00 0.00 95 1015.9
20260507022521 5 0 0.0 0.0 0.00 0.00 0.00 95 1016.1
20260507021021 5 0 0.0 0.0 0.00 0.00 0.00 95 1015.7
20260507015521 5 0 0.0 0.0 0.00 0.00 0.00 95 1016.2
20260507014021 5 0 0.0 0.0 0.00 0.00 0.00 95 1016.1
20260507012521 5 0 0.0 0.0 0.00 0.00 0.00 95 1016.1
20260507011021 5 0 0.0 0.0 0.00 0.00 0.00 95 1015.8
20260507005521 5 0 0.0 0.0 0.00 0.00 0.00 95 1016.0
20260507004021 4 0 0.0 0.0 0.00 0.00 0.00 95 1016.0
20260507002521 4 0 0.0 0.0 0.00 0.00 0.00 94 1016.1
20260507001021 4 0 0.0 0.0 0.00 0.00 0.00 94 1016.0
20260506235521 4 0 0.0 0.0 0.00 0.00 0.00 93 1015.8
20260506234021 5 0 0.0 0.0 0.00 0.00 0.00 92 1016.1
20260506232521 5 0 0.0 0.0 0.00 0.00 0.00 92 1016.1
20260506231021 5 202 0.0 3.2 0.00 0.00 0.00 90 1016.0
20260506225521 5 157 0.0 3.2 0.00 0.00 0.00 89 1015.7
20260506224021 6 124 0.0 3.2 0.00 0.00 0.00 89 1015.6
20260506222521 6 115 0.0 6.4 0.00 0.00 0.00 88 1015.4
20260506221021 6 187 0.0 3.2 0.00 0.00 0.00 89 1015.4
20260506215521 6 155 0.0 3.2 0.00 0.00 0.00 89 1015.6
20260506214021 6 0 0.0 0.0 0.00 0.00 0.00 91 1015.5
20260506212521 6 0 0.0 0.0 0.00 0.00 0.00 90 1015.5
20260506211021 6 157 0.0 3.2 0.00 0.00 0.00 90 1015.5
20260506205521 6 135 0.0 3.2 0.00 0.00 0.00 89 1015.2
20260506204021 6 139 1.6 3.2 0.00 0.00 0.00 89 1014.9
20260506202521 6 101 0.0 3.2 0.00 0.00 0.00 89 1015.0
20260506201021 7 161 0.0 3.2 0.00 0.00 0.00 88 1014.9
20260506195521 7 127 0.0 6.4 0.00 0.00 0.00 87 1014.7
20260506194021 7 69 1.6 3.2 0.00 0.00 0.00 86 1014.7
20260506192521 7 88 0.0 3.2 0.00 0.00 0.00 86 1014.6
20260506191021 7 110 1.6 6.4 0.00 0.00 0.00 85 1014.5
20260506185521 7 15 0.0 6.4 0.00 0.00 0.00 85 1014.2
20260506184021 7 99 1.6 6.4 0.00 0.00 0.00 84 1014.2
20260506182521 8 87 1.6 6.4 0.00 0.00 0.00 84 1014.2
20260506181021 8 116 1.6 6.4 0.00 0.00 0.00 83 1014.1
20260506175521 8 100 1.6 6.4 0.00 0.00 0.00 83 1014.0
20260506174021 8 103 0.0 6.4 0.00 0.00 0.00 84 1013.9
20260506172521 8 133 1.6 6.4 0.00 0.00 0.00 85 1013.8
20260506171021 8 106 0.0 6.4 0.00 0.00 0.00 87 1013.8
20260506165521 8 123 1.6 6.4 0.00 0.00 0.00 87 1013.7
20260506164021 8 131 0.0 3.2 0.00 0.00 0.00 87 1013.5
20260506162521 8 83 1.6 6.4 0.00 0.00 0.00 88 1013.5
20260506161021 8 46 0.0 6.4 0.00 0.00 0.00 89 1013.5
20260506155521 8 103 0.0 6.4 0.00 0.00 0.00 90 1013.5
20260506154021 8 21 1.6 6.4 0.00 0.00 0.00 89 1013.4
20260506152521 8 330 3.2 6.4 0.00 0.00 0.00 89 1013.2
20260506151021 8 73 0.0 6.4 0.00 0.00 0.00 87 1013.0
20260506145521 8 245 1.6 3.2 0.00 0.00 0.00 89 1013.1
20260506144021 8 330 0.0 6.4 0.00 0.00 0.00 88 1012.9
20260506142521 8 282 3.2 6.4 0.00 0.00 0.00 87 1012.6